Location: Ostrava
(49.8330°N, 18.2830°E)
Time: 06:12:09
(UTC+02:00)

Transit 2A - All Passes

Search period start: 05 May 2015 00:00
Search period end: 15 May 2015 00:00
Orbit: 592 x 969 km, 66.7° (Epoch: 04 May)

Date Brightness Start Highest point End Pass type
(mag) Time Alt. Az. Time Alt. Az. Time Alt. Az.
05 May - 04:03:57 10° SSE 04:08:21 21° ESE 04:13:00 10° ENE visible
05 May - 05:44:38 10° SSW 05:50:59 88° SE 05:57:25 10° NE daylight
05 May - 07:29:29 10° W 07:35:06 31° NNW 07:40:36 10° NNE daylight
05 May - 09:16:23 10° NW 09:20:26 17° N 09:24:21 10° NNE daylight
05 May - 11:01:40 10° NNW 11:06:05 20° NNE 11:10:21 10° ENE daylight
05 May - 12:45:05 10° NNW 12:50:58 46° NE 12:56:21 10° ESE daylight
05 May - 14:28:41 10° NW 14:34:17 42° WSW 14:39:20 10° S daylight
06 May - 03:31:33 10° SE 03:34:48 15° ESE 03:38:23 10° ENE visible
06 May - 05:10:56 10° SSW 05:17:12 70° ESE 05:23:34 10° NE daylight
06 May - 06:55:09 10° WSW 07:01:02 36° NW 07:06:49 10° NNE daylight
06 May - 08:41:54 10° NW 08:46:11 18° NNW 08:50:18 10° NNE daylight
06 May - 10:27:42 10° NNW 10:31:51 18° NNE 10:35:54 10° NE daylight
06 May - 12:11:18 10° NNW 12:16:58 37° NE 12:22:12 10° ESE daylight
06 May - 13:54:43 10° NW 14:00:36 58° WSW 14:05:53 10° SSE daylight
07 May - 03:00:29 10° ESE 03:01:18 10° E 03:02:33 10° E visible
07 May - 04:37:22 10° SSW 04:43:28 53° ESE 04:49:40 10° NE visible
07 May - 06:20:55 10° WSW 06:27:01 44° NW 06:33:03 10° NNE daylight
07 May - 08:07:23 10° WNW 08:11:57 20° NNW 08:16:21 10° NNE daylight
07 May - 09:53:40 10° NNW 09:57:37 17° N 10:01:27 10° NE daylight
07 May - 11:37:31 10° NNW 11:42:54 31° NNE 11:47:56 10° E daylight
07 May - 13:20:50 10° NW 13:26:52 77° WSW 13:32:16 10° SSE daylight
07 May - 15:06:00 10° WNW 15:09:09 15° WSW 15:11:54 10° SW daylight
08 May - 04:03:59 10° S 04:09:47 40° ESE 04:15:42 10° NE visible
08 May - 05:46:47 10° WSW 05:53:03 55° NW 05:59:16 10° NNE daylight
08 May - 07:32:51 10° WNW 07:37:45 22° NNW 07:42:28 10° NNE daylight
08 May - 09:19:31 10° NW 09:23:21 16° N 09:27:05 10° NE daylight
08 May - 11:03:42 10° NNW 11:08:47 26° NNE 11:13:35 10° E daylight
08 May - 12:46:59 10° NW 12:53:04 82° NE 12:58:31 10° SE daylight
08 May - 14:31:23 10° WNW 14:35:38 21° WSW 14:39:26 10° SSW daylight
09 May - 03:30:47 10° SSE 03:36:08 30° ESE 03:41:38 10° NE visible
09 May - 05:12:46 10° SW 05:19:08 68° NW 05:25:29 10° NE daylight
09 May - 06:58:22 10° W 07:03:35 25° NNW 07:08:38 10° NNE daylight
09 May - 08:45:14 10° NW 08:49:05 16° N 08:52:48 10° NE daylight
09 May - 10:29:53 10° NNW 10:34:38 23° NNE 10:39:11 10° ENE daylight
09 May - 12:13:10 10° NNW 12:19:11 63° NE 12:24:37 10° SE daylight
09 May - 13:57:08 10° NW 14:02:04 28° WSW 14:06:32 10° SSW daylight
10 May - 02:57:51 10° SSE 03:02:32 23° ESE 03:07:25 10° ENE visible
10 May - 04:38:52 10° SW 04:45:16 86° NW 04:51:40 10° NE daylight
10 May - 06:23:55 10° W 06:29:27 29° NNW 06:34:49 10° NNE daylight
10 May - 08:10:52 10° NW 08:14:49 17° N 08:18:38 10° NNE daylight
10 May - 09:56:00 10° NNW 10:00:27 20° NNE 10:04:43 10° ENE daylight
10 May - 11:39:22 10° NNW 11:45:15 49° NE 11:50:36 10° ESE daylight
10 May - 13:23:02 10° NW 13:28:28 38° WSW 13:33:20 10° S daylight
11 May - 02:25:17 10° SE 02:28:58 17° ESE 02:32:57 10° ENE visible
11 May - 04:05:07 10° SSW 04:11:27 75° ESE 04:17:50 10° NE visible
11 May - 05:49:33 10° W 05:55:22 34° NW 06:01:02 10° NNE daylight
11 May - 07:36:24 10° NW 07:40:34 18° NNW 07:44:34 10° NNE daylight
11 May - 09:22:04 10° NNW 09:26:13 18° NNE 09:30:15 10° ENE daylight
11 May - 11:05:35 10° NNW 11:11:15 39° NE 11:16:28 10° ESE daylight
11 May - 12:49:03 10° NW 12:54:48 52° WSW 12:59:57 10° SSE daylight
12 May - 01:53:31 10° ESE 01:55:27 12° E 01:57:47 10° E visible
12 May - 03:31:30 10° SSW 03:37:42 58° ESE 03:43:56 10° NE visible
12 May - 05:15:17 10° WSW 05:21:20 41° NW 05:27:16 10° NNE daylight
12 May - 07:01:53 10° WNW 07:06:19 19° NNW 07:10:35 10° NNE daylight
12 May - 08:48:03 10° NNW 08:51:59 17° N 08:55:48 10° NE daylight
12 May - 10:31:48 10° NNW 10:37:13 32° NE 10:42:15 10° E daylight
12 May - 12:15:08 10° NW 12:21:04 71° WSW 12:26:23 10° SSE daylight
12 May - 14:00:43 10° WNW 14:03:15 13° WSW 14:05:26 10° SW daylight
13 May - 02:58:04 10° S 03:03:59 44° ESE 03:10:00 10° NE visible
13 May - 04:41:07 10° WSW 04:47:20 51° NW 04:53:29 10° NNE daylight
13 May - 06:27:20 10° WNW 06:32:07 21° NNW 06:36:41 10° NNE daylight
13 May - 08:13:55 10° NNW 08:17:43 16° N 08:21:24 10° NE daylight
13 May - 09:57:59 10° NNW 10:03:07 27° NNE 10:07:55 10° E daylight
13 May - 11:41:16 10° NW 11:47:17 88° NE 11:52:40 10° SE daylight
13 May - 13:25:53 10° WNW 13:29:45 18° WSW 13:33:13 10° SW daylight
14 May - 02:24:48 10° S 02:30:20 33° ESE 02:35:58 10° NE visible
14 May - 04:07:03 10° SW 04:13:24 64° NW 04:19:42 10° NNE visible
14 May - 05:52:50 10° WNW 05:57:56 24° NNW 06:02:50 10° NNE daylight
14 May - 07:39:41 10° NW 07:43:27 16° N 07:47:06 10° NE daylight
14 May - 09:24:10 10° NNW 09:28:58 23° NNE 09:33:31 10° ENE daylight
14 May - 11:07:26 10° NW 11:13:26 68° NE 11:18:48 10° SE daylight
14 May - 12:51:31 10° NW 12:56:12 25° WSW 13:00:25 10° SSW daylight
